Other Public Products
Issued by NWS Grand Forks, ND

Home | Current Version | Previous Version | Graphics & Text | Print | Product List | Glossary On
Versions: 1 2 3 4 5 6 7 8 9 10 11 12 13 14 15 16 17 18 19 20 21 22 23 24 25 26 27 28 29 30 31 32 33 34 35 36 37 38 39 40 41 42 43 44 45 46 47 48 49 50
000
FPUS83 KFGF 210410
OPUFGF
PRAIRIE TO PINES WEATHER ROUNDUP
NATIONAL WEATHER SERVICE EASTERN NORTH DAKOTA/GRAND FORKS ND
1100 PM CDT MON APR 20 2015

 **SATELLITE DATA USED TO AUGMENT SKY COVER AT AUTOMATED STATIONS**
 *****  WEATHER ACROSS EASTERN NORTH DAKOTA  *****

CITY           SKY/WX    TMP DP  RH WIND       PRES   REMARKS
GRAND FORKS    CLOUDY    34  27  75 N25G33    29.65S WCI  21
GRAND FORKS AF CLOUDY    32  27  80 N26       29.65S WCI  18
GRAND CITY NWS   N/A     32 N/A N/A N20         N/A  WCI  20
BUXTON         NOT AVBL
DEVILS LAKE    CLEAR     34  25  69 N18       29.71S WCI  23
FARGO          MIX PCPN  36  29  75 N24       29.65S
WAHPETON ARPT  CLOUDY    36  30  80 NW10      29.65S
$$

 *****  WEATHER ACROSS CENTRAL AND WESTERN NORTH DAKOTA  *****

CITY           SKY/WX    TMP DP  RH WIND       PRES   REMARKS
JAMESTOWN      PTCLDY    36  26  67 NW13      29.69R
BISMARCK       CLEAR     40  11  30 N12       29.78S
MINOT          MOCLDY    36  15  42 NW12      29.77S
MINOT AFB      MOCLDY    38  16  41 NW13      29.77S
GARRISON         N/A     33  16  49 NW9       29.77F
WILLISTON      CLEAR     27  14  58 CALM      29.80F
DICKINSON      CLEAR     30  16  56 W7        29.80S WCI  23
HETTINGER      CLEAR     28  15  58 NW3       29.85R
$$

 *****  OTHER OBSERVATIONS NORTHEAST NORTH DAKOTA  *****

CITY           SKY/WX    TMP DP  RH WIND       PRES   REMARKS
WALHALLA       LGT RAIN  32  32 100 NW18G26   29.67F WCI  20
LANGDON        CLOUDY    32  27  80 N22G33    29.68S WCI  19
CAVALIER       CLOUDY    32  27  80 NW21G29   29.66S WCI  20
GRAFTON        CLOUDY    34  28  80 NW21G33   29.65F WCI  22
CANDO          FAIR      32  25  74 N17G26    29.73S WCI  21
FORT TOTTEN      N/A     34  26  72 N10       29.95
ROLLA          MOCLDY    32  23  69 N26G33    29.74S WCI  18
RUGBY          NOT AVBL
 ***** THE ABOVE OBSERVATIONS ARE NON NWS ARE NOT QUALITY
        CONTROLLED AND MAY MIS-REPORT RAIN FOR SNOW...
$$

 *****  OTHER OBSERVATIONS SOUTHEAST NORTH DAKOTA *****

CITY           SKY/WX    TMP DP  RH WIND       PRES   REMARKS
COOPERSTOWN    NOT AVBL
VALLEY CITY    CLOUDY    34  30  86 NW13      29.68S WCI  25
OAKES            N/A     34  28  80 W6        29.69F
GWINNER        PTCLDY    36  28  75 NW10      29.69F
SHEYENNE NWR     N/A     38  27  64 N10       29.95
BUFFALO        NOT AVBL
WYNDMERE       NOT AVBL
 ***** THE ABOVE OBSERVATIONS ARE NON NWS ARE NOT QUALITY
       CONTROLLED AND MAY MIS-REPORT RAIN FOR SNOW...
$$

  *****  WEATHER ACROSS NORTHERN MINNESOTA  *****

CITY           SKY/WX    TMP DP  RH WIND       PRES   REMARKS
FLAG ISLAND    CLOUDY    32  28  86 NW21      29.45S WCI  20
WARROAD        LGT SNOW  30  27  86 NW15      29.50S WCI  19
ROSEAU         LGT SNOW  30  27  86 NW16      29.52S WCI  19
HALLOCK        LGT SNOW  34  28  80 NW21G31   29.61S WCI  22
THF RVR FALLS  CLOUDY    30  25  80 NW23      29.58S WCI  17
HALSTAD        NOT AVBL
FOSSTON        CLOUDY    28  25  86 NW17G29   29.56F WCI  16
BAUDETTE       CLOUDY    32  27  81 NW20G28   29.43F WCI  20
WASKISH        CLOUDY    32  28  86 W17G24    29.46S WCI  21
CROOKSTON      CLOUDY    32  28  86 N26G35    29.63S WCI  18
$$
  *****  WEATHER ACROSS CENTRAL AND WEST MINNESOTA  *****

CITY           SKY/WX    TMP DP  RH WIND       PRES   REMARKS
BEMIDJI        FLURRIES  31  26  84 NW24G32   29.50S WCI  17
PARK RAPIDS    CLOUDY    37  26  64 NW22      29.51S
WADENA         DRIZZLE   30  27  86 NW20      29.54F WCI  18
DETROIT LAKES  CLOUDY    32  30  93 NW24G33   29.59S WCI  19
MOORHEAD       DRIZZLE   36  28  75 NW17G23   29.64F
FERGUS FALLS   CLOUDY    34  28  80 NW17G30   29.64F WCI  23
ELBOW LAKE     CLOUDY    34  32  90 NW17G24   29.62S WCI  24
MORRIS MN      LGT SNOW  36  32  87 N20       29.63S
STAPLES        CLOUDY    32  25  74 NW20      29.52F WCI  20
WHEATON        MOCLDY    36  27  69 NW12      29.67F
$$
  *****  WEATHER ELSEWHERE ACROSS MINNESOTA  *****

CITY           SKY/WX    TMP DP  RH WIND       PRES   REMARKS
DULUTH         LGT SNOW  33  29  85 W16       29.35F FOG     WCI  23
INTRNTL FALLS  CLOUDY    33  30  88 NW13      29.37S WCI  24
ELY            LGT SNOW  32  30  93 W9        29.29S WCI  24
CLOQUET        FLURRIES  34  28  80 W13       29.39F WCI  25
BRAINERD       CLOUDY    33  28  81 NW14G28   29.49F WCI  23
HIBBING        FLURRIES  32  27  81 NW21G26   29.37S WCI  20
ALEXANDRIA     CLOUDY    33  28  81 NW20G30   29.59S WCI  21
SAINT CLOUD    CLOUDY    35  27  72 NW17G29   29.53F WCI  25
MINNEAPOLIS    CLOUDY    37  29  72 NW18G33   29.54S
$$

  *****  WEATHER ACROSS SOUTH DAKOTA  *****

CITY           SKY/WX    TMP DP  RH WIND       PRES   REMARKS
SIOUX FALLS    CLEAR     35  22  58 W5        29.73R
BROOKINGS      CLEAR     36  27  69 NW10      29.71S
WATERTOWN      CLEAR     37  26  64 NW14      29.69S
HURON          CLEAR     35  13  40 N9        29.75R
SISSETON         N/A     38  28  67 N18       29.66F
ABERDEEN       CLEAR     34  23  64 NW8       29.74R
MITCHELL       CLEAR     40   8  26 NW10      29.76S
PIERRE         PTCLDY    43  17  35 NW14      29.80R
MOBRIDGE       CLEAR     32  15  49 NW5       29.76S
RAPID CITY     CLEAR     34  22  61 N10       29.90R
$$

  *****  SOME WEATHER IN NEARBY STATES *****

CITY           SKY/WX    TMP DP  RH WIND       PRES   REMARKS
GLASGOW MT     PTCLDY    43  20  39 SE10      29.78F
GREAT FALLS MT CLEAR     48  28  46 E7        29.85R
CHEYENNE WY    CLEAR     35  26  69 W10       29.96R
SCOTTSBLUFF NE CLEAR     40  26  57 NW6       29.90R
OMAHA NE       CLEAR     47  20  34 W8        29.79S
DES MOINES IA  CLEAR     46  19  34 NW9G21    29.73R
DAVENPORT IA   PTCLDY    37  33  85 W7        29.68F
CHICAGO IL     MOCLDY    43  33  68 W15G23    29.61S
EAU CLAIRE WI  CLOUDY    37  29  72 W10       29.48S
LA CROSSE WI   MOCLDY    42  32  67 W18G25    29.53S
$$

  *****  SOME NATIONAL WEATHER *****

CITY           SKY/WX    TMP DP  RH WIND       PRES   REMARKS
LA GUARDIA NY  FOG       51  50  96 E9        29.59F VSB 1/4
RALEIGH NC     MOCLDY    68  63  84 SW16G22   29.68S THUNDER
ATLANTA GA     PTCLDY    61  46  57 NW14      29.87R
NEW ORLEANS LA CLOUDY    68  49  50 N8        29.98R
OKLAHOMA CITY  PTCLDY    53  37  54 S3        29.99R
ALBUQUERQUE NM PTCLDY    61  23  23 CALM      29.96R
SALT LAKE CITY CLEAR     59  27  29 SE7       29.88R
LOS ANGELES CA PTCLDY    58  52  80 W8        29.90R
BOISE ID       CLEAR     63  28  26 CALM      29.81S
SEATTLE WA     PTCLDY    62  37  39 NW3       29.85R
$$

*** WEATHER ACROSS MANITOBA...SASKATCHEWAN AND ONTARIO ***
                ***ONTARIO***

CITY           SKY/WX    TMP DP  RH WIND       PRES   REMARKS
GERALDTON      LGT SNOW  32  30  93 NW8       29.08S VSB 1   WCI  25
THUNDER BAY    LGT RAIN  34  34 100 W9        29.20F
SIOUX LOOKOUT  LGT SNOW  30  28  93 N8G21     29.30R WCI  23
TORONTO        MOCLDY    52  41  66 W23       29.49R
BIG TROUT LK   LGT SNOW  23  21  93 N16G26    29.51F WCI  10
PICKLE LAKE    NOT AVBL
DRYDEN         LGT SNOW  32  30  93 N7G18     29.32R
KENORA         LGT SNOW  30  28  93 N17G26    29.42R FOG     WCI  18
$$
                *** MANITOBA***

CITY           SKY/WX    TMP DP  RH WIND       PRES   REMARKS
BRANDON        MOCLDY    36  25  64 N16G22    29.78F
DAUPHIN        CLOUDY    37  28  70 N15       29.83S
ISLAND LAKE    LGT SNOW  25  23  93 N17G30    29.77R DRFTSNOWWCI  11
PILOT MOUND      N/A     32  27  80 NW16G25     N/A  WCI  21
THE PAS        PTCLDY    34  27  75 E7        29.95R
THOMPSON       PTCLDY    28  23  80 NE9       30.00R WCI  20
WINNIPEG       FLURRIES  32  30  93 N24       29.63F WCI  19
LYNN LAKE      CLEAR     32  21  64 S5        29.99R
CHURCHILL      CLOUDY    21  18  86 NE18      30.14S WCI   6
GILLAM         CLEAR     23  14  68 NE16      30.00S WCI  10
$$
                ***SASKATCHEWAN***

CITY           SKY/WX    TMP DP  RH WIND       PRES   REMARKS
ESTEVAN        CLOUDY    37  25  60 NE14G24   29.83R
KINDERSLEY     PTCLDY    41  30  65 NE7       29.80R
LLOYDMINSTER   PTCLDY    41  27  56 E12       29.87R
PRINCE ALBERT  PTCLDY    32  28  86 CALM      29.92R
REGINA         MOCLDY    37  28  70 E13G20    29.85R


USA.gov is the U.S. government's official web portal to all federal, state and local government web resources and services.